Temperature
4 4 4 3 3 3 3 3 3 4 4 4 4 4 4 4 5 5 5 5 6 6 6 6 6 7 7 7 7 7 7 7 7 7 7 7 7 7 7 7 7 7 8
4 3 3 3 3 3 3 3 3 3 3 3 3 3 4 4 4 4 4 5 5 5 6 6 6 6 6 7 7 7 7 7 7 7 6 6 7 7 7 7 7 7 7
3 3 3 3 3 2 2 2 2 2 2 2 3 3 3 3 3 4 4 4 4 5 5 5 5 5 6 6 6 6 6 6 6 6 6 6 6 6 6 6 6 6 7
3 2 2 2 2 2 2 2 2 2 2 2 2 2 2 3 3 3 3 3 4 4 4 5 5 5 5 5 5 5 6 6 6 6 6 6 6 5 5 5 6 6 6
3 2 2 2 2 2 2 1 1 1 1 2 2 2 2 2 2 3 3 3 3 3 4 4 4 4 4 5 5 5 5 5 5 5 5 5 5 5 5 5 5 5 5
2 2 1 1 1 1 1 1 1 1 1 1 1 1 2 2 2 2 2 2 2 3 3 3 4 4 4 4 4 5 5 4 5 5 5 5 5 5 5 5 5 5 5
2 1 1 1 1 1 1 1 1 1 1 1 1 1 1 1 1 2 2 2 2 2 3 3 3 3 3 3 4 4 4 4 4 4 4 4 5 5 5 5 4 4 4
1 1 1 0 0 0 0 0 1 1 1 1 1 1 1 1 1 1 1 1 2 2 2 2 2 3 3 3 3 3 3 3 3 4 4 4 4 4 4 5 4 4 4
1 1 0 -0 -0 0 0 0 0 0 0 0 0 0 1 1 1 1 1 1 1 1 2 2 2 2 2 2 2 3 3 3 3 3 3 3 4 4 4 4 4 4 3
1 0 -0 -0 -0 -0 -0 -0 -0 -0 -0 -0 -0 0 0 0 0 0 1 1 1 1 1 1 1 2 2 2 2 2 2 2 2 2 3 3 3 3 3 3 3 4 4
0 -0 -1 -1 -1 -1 -1 -1 -1 -1 -1 -0 -0 -0 -0 -0 -0 0 0 1 1 1 1 1 1 1 1 1 1 1 2 2 2 2 2 2 3 3 3 3 3 3 3
-0 -1 -1 -1 -1 -1 -1 -1 -1 -1 -1 -1 -1 -1 -1 -1 -0 -0 0 0 0 0 0 0 1 1 1 1 1 1 1 1 1 1 1 2 2 2 2 2 2 2 2
-1 -1 -2 -2 -2 -2 -2 -2 -2 -1 -1 -1 -1 -1 -1 -1 -1 -0 -0 -0 -0 -0 -0 0 0 0 0 1 1 1 1 1 1 1 1 1 1 1 1 2 2 2 2
-2 -2 -2 -2 -2 -2 -2 -2 -2 -2 -2 -2 -2 -2 -1 -1 -1 -1 -1 -1 -1 -1 -0 -0 -0 -0 0 0 0 0 0 0 0 1 1 1 1 1 1 1 1 1 1
-3 -3 -3 -3 -3 -3 -3 -3 -3 -2 -2 -2 -2 -2 -2 -2 -2 -2 -2 -1 -1 -1 -1 -1 -1 -1 -0 -0 -0 -0 -0 -0 -0 -0 0 0 0 0 0 1 1 1 1
-4 -4 -4 -4 -4 -3 -3 -3 -3 -3 -3 -3 -2 -2 -2 -2 -2 -2 -2 -2 -2 -2 -2 -1 -1 -1 -1 -1 -1 -1 -1 -1 -0 -0 -0 -0 -0 -0 -0 -0 0 0 0
-4 -4 -4 -5 -4 -4 -4 -4 -4 -3 -3 -3 -3 -3 -3 -3 -3 -3 -3 -2 -2 -2 -2 -2 -2 -2 -1 -1 -1 -1 -1 -1 -1 -1 -1 -1 -1 -1 -1 -1 -1 -0 -0
-5 -5 -5 -5 -5 -5 -5 -4 -4 -4 -4 -4 -4 -3 -3 -3 -3 -3 -3 -3 -3 -3 -3 -2 -2 -2 -2 -2 -2 -2 -2 -2 -2 -2 -1 -1 -1 -1 -1 -1 -1 -1 -1
-6 -6 -5 -5 -5 -5 -5 -5 -5 -5 -4 -4 -4 -4 -4 -4 -4 -4 -4 -4 -4 -3 -3 -3 -3 -3 -3 -3 -3 -2 -2 -2 -2 -2 -2 -2 -2 -2 -2 -2 -2 -1 -1
-6 -6 -6 -6 -6 -6 -6 -6 -5 -5 -5 -5 -5 -5 -4 -4 -4 -4 -4 -4 -4 -4 -4 -4 -3 -3 -3 -3 -3 -3 -3 -3 -3 -3 -3 -3 -3 -3 -3 -3 -2 -2 -2
-6 -6 -6 -6 -6 -6 -6 -6 -6 -6 -5 -5 -5 -5 -5 -5 -5 -5 -5 -4 -4 -4 -4 -4 -4 -4 -4 -4 -4 -4 -4 -4 -4 -4 -3 -3 -3 -3 -3 -3 -3 -3 -3
-7 -7 -7 -7 -7 -7 -7 -6 -6 -6 -6 -6 -6 -6 -5 -5 -5 -5 -5 -5 -5 -5 -5 -4 -4 -4 -4 -4 -4 -4 -4 -4 -4 -4 -4 -4 -4 -4 -4 -4 -4 -3 -3
-7 -7 -7 -7 -7 -7 -7 -7 -7 -7 -6 -6 -6 -6 -6 -6 -6 -6 -6 -5 -5 -5 -5 -5 -5 -5 -5 -5 -5 -5 -5 -5 -5 -5 -5 -5 -4 -4 -4 -4 -4 -4 -4
-8 -8 -8 -8 -8 -8 -8 -8 -8 -7 -7 -7 -7 -7 -7 -7 -7 -6 -6 -6 -6 -6 -6 -6 -6 -5 -5 -5 -5 -5 -5 -5 -5 -5 -5 -5 -5 -5 -5 -5 -5 -5 -4
-9 -9 -9 -9 -8 -8 -8 -8 -8 -8 -8 -8 -7 -7 -7 -7 -7 -7 -7 -7 -7 -7 -7 -6 -6 -6 -6 -6 -6 -6 -6 -6 -6 -6 -6 -6 -5 -5 -5 -5 -5 -5 -5
-9 -9 -9 -9 -9 -9 -9 -8 -8 -8 -8 -8 -8 -8 -8 -8 -8 -8 -7 -8 -8 -7 -7 -7 -7 -7 -7 -7 -7 -7 -6 -6 -6 -6 -6 -6 -6 -6 -6 -6 -6 -6 -6
Wind_Speed
1 1 2 1 1 1 1 0 0 1 0 1 0 0 0 0 1 2 2 2 3 2 2 2 2 2 2 2 3 3 3 2 2 3 2 2 2 3 3 4 4 5 6
0 1 2 1 1 1 1 1 1 1 1 1 1 1 1 1 1 0 1 1 2 1 1 3 2 2 2 2 3 3 3 2 2 3 3 1 1 1 2 2 3 3 4
1 1 2 1 1 2 1 1 1 1 1 1 1 1 1 1 0 0 1 1 2 0 1 3 3 2 2 2 3 3 3 4 3 3 2 3 2 1 1 1 2 2 2
0 1 1 1 2 2 1 1 1 2 2 1 1 2 2 2 2 1 1 0 1 0 1 2 3 3 2 3 3 3 2 3 4 2 1 2 3 2 1 1 1 2 2
0 1 2 2 2 1 1 1 2 2 2 2 2 3 2 2 1 1 2 2 1 1 1 2 2 3 2 3 3 3 2 2 3 3 1 1 1 1 2 2 2 1 2
1 1 2 2 1 1 1 2 2 3 2 2 2 2 3 3 3 3 3 2 2 2 2 2 2 2 2 3 3 3 3 2 1 2 2 2 2 3 2 2 3 2 2
1 1 2 2 2 2 2 2 3 3 3 3 3 3 3 4 4 4 4 3 2 2 3 2 2 2 2 2 2 3 4 3 2 2 2 2 1 1 1 2 2 1 1
2 2 2 3 3 3 3 3 3 3 3 3 3 3 3 3 3 3 3 3 2 3 3 3 3 3 3 3 2 2 3 3 3 3 3 2 2 1 2 2 3 2 1
2 2 2 3 3 3 4 3 3 3 3 3 3 3 3 3 3 3 3 3 2 2 4 4 4 3 3 3 3 3 3 3 3 3 2 2 2 1 1 1 3 3 3
4 3 3 3 3 3 4 2 3 3 2 2 2 3 2 3 3 3 3 3 3 3 3 4 4 4 3 3 4 3 3 4 3 3 3 2 2 2 2 1 2 2 3
4 4 4 4 4 3 3 3 3 3 2 2 2 2 2 3 2 2 2 3 3 3 4 5 5 5 4 4 4 4 4 4 4 3 4 3 3 2 2 2 2 2 2
5 5 5 4 4 4 4 3 2 2 2 2 2 2 2 1 2 2 2 3 3 3 4 4 5 5 5 5 5 5 5 5 5 5 4 4 3 3 3 3 3 3 2
7 6 5 5 5 4 4 3 2 2 2 1 1 1 1 1 1 1 2 2 2 2 3 4 5 5 5 5 5 5 5 5 6 6 6 5 5 4 3 3 4 3 2
7 7 7 5 5 5 4 4 4 3 2 2 1 1 2 2 2 1 1 1 2 2 2 3 4 5 5 5 6 5 5 4 5 5 5 6 6 5 5 4 4 3 3
8 8 8 7 6 5 5 4 4 4 3 2 2 2 1 1 1 1 1 1 2 2 2 3 3 4 4 5 6 5 5 5 5 5 5 5 6 6 6 5 4 4 4
9 9 8 8 7 6 6 5 4 4 3 3 3 2 1 1 1 1 1 1 1 1 2 2 3 4 4 6 7 6 5 5 6 5 5 5 5 6 7 8 7 6 6
9 9 8 8 7 6 6 5 5 4 4 4 3 3 2 1 2 2 1 2 1 1 2 2 3 3 4 7 8 8 5 5 5 5 5 4 4 4 4 5 6 6 7
9 9 8 7 7 7 6 5 4 4 4 4 4 4 3 2 2 2 1 2 1 1 2 3 3 3 4 7 8 8 5 4 5 5 5 5 5 5 4 4 4 4 5
8 7 7 7 6 6 6 4 4 4 4 4 5 4 3 2 2 2 2 2 1 2 2 2 2 3 3 5 7 8 4 4 5 5 4 5 5 6 6 4 4 4 4
7 7 7 7 6 7 5 4 4 4 5 5 5 5 4 3 2 2 2 2 2 2 2 2 2 2 2 3 5 6 4 4 4 4 5 6 6 7 7 5 5 5 5
7 7 6 6 6 6 6 5 5 5 6 5 5 4 4 4 3 2 2 2 2 2 2 2 2 1 2 3 5 5 3 4 4 3 3 4 6 7 8 7 5 7 5
7 7 6 6 6 6 5 6 6 7 6 5 5 4 4 4 3 2 2 2 1 1 2 2 2 1 2 3 4 5 6 5 4 4 3 4 6 8 8 6 6 6 4
7 6 6 6 6 6 5 6 7 7 6 6 5 5 4 4 3 3 2 2 2 1 2 2 2 2 1 2 4 5 6 6 4 3 5 5 6 6 5 5 5 4 2
6 6 6 7 7 7 6 6 6 6 6 6 6 5 4 4 4 3 2 2 2 2 2 2 2 2 1 1 1 2 3 4 4 3 4 4 4 3 2 3 2 2 2
6 6 6 6 7 7 7 7 6 6 6 6 5 5 5 4 3 3 3 3 2 1 2 2 2 1 2 3 3 2 2 2 3 3 2 2 2 2 2 1 1 1 1
5 6 6 6 7 7 7 7 6 6 5 5 5 5 4 4 3 3 3 4 4 5 4 4 3 2 3 4 4 4 4 4 3 2 2 2 2 2 2 2 2 2 2
Wind_Direction
220 163 148 149 173 182 194 196 327 332 305 308 270 198 177 149 91 50 23 9 0 26 72 78 84 92 131 143 139 135 132 128 131 114 100 74 89 100 99 98 96 94 102
19 166 171 164 186 210 239 247 253 267 263 278 272 220 195 199 171 106 43 12 348 6 112 111 118 112 139 133 129 136 152 155 145 139 141 131 113 77 100 98 108 104 106
211 229 214 200 208 229 235 254 260 268 271 284 279 253 212 201 209 221 245 15 350 334 121 127 122 125 142 154 151 150 157 169 168 155 149 153 184 163 135 130 123 129 121
239 279 271 253 245 236 233 261 266 266 253 250 231 221 217 216 224 211 225 218 346 269 135 140 136 139 144 161 166 148 168 168 173 184 198 163 141 148 155 190 171 165 162
246 290 298 270 265 235 219 247 258 250 243 235 236 231 222 215 209 195 209 223 287 236 176 149 138 145 150 159 154 151 163 173 178 170 160 142 144 142 168 190 195 200 205
5 342 332 318 300 289 251 238 243 244 238 229 227 227 218 210 206 209 205 213 239 196 170 156 147 148 149 162 164 164 176 186 191 165 153 153 166 172 170 192 193 202 225
358 332 319 308 300 283 262 250 244 242 235 225 218 223 232 216 213 213 201 203 227 224 186 162 160 166 164 163 167 176 187 188 192 183 176 174 184 177 164 172 189 205 244
324 302 296 307 305 296 284 262 249 251 244 231 228 223 237 228 220 215 200 203 214 222 181 169 181 185 170 178 175 184 194 189 195 197 179 175 195 196 168 174 171 190 227
325 307 298 302 304 294 288 271 264 262 253 242 235 228 226 230 214 208 210 208 209 207 185 180 191 191 183 185 184 193 195 198 201 197 183 186 196 189 188 182 175 180 214
331 328 324 315 300 291 286 272 269 268 267 269 264 258 230 234 229 214 210 205 201 199 190 195 200 200 192 197 197 201 198 201 208 199 187 192 201 193 188 195 213 200 200
328 324 323 317 313 314 311 273 259 266 267 261 263 274 262 242 225 222 223 204 197 197 202 206 205 201 197 198 203 210 201 205 217 211 200 200 188 195 197 199 216 222 195
341 337 331 329 326 327 323 312 280 275 272 268 260 262 265 256 239 225 227 213 205 201 206 210 210 208 201 198 207 210 208 207 212 210 207 208 200 201 208 205 216 224 216
346 343 338 330 325 323 322 322 326 316 305 294 274 269 267 253 261 250 235 218 213 208 207 210 211 209 203 202 210 207 211 216 213 208 208 210 201 208 212 214 217 220 228
344 339 335 329 328 328 328 330 331 330 327 331 313 285 272 257 260 263 257 242 226 211 199 212 212 210 204 205 213 210 207 223 216 212 211 212 207 206 208 220 220 217 215
339 336 333 333 332 332 332 333 331 329 329 330 316 300 299 295 280 274 266 250 228 225 206 210 219 217 212 213 211 209 211 221 218 217 215 216 217 219 221 223 216 211 213
333 331 332 333 333 330 326 329 328 330 338 329 321 324 332 334 309 291 280 263 246 233 213 212 218 226 226 229 226 222 212 214 213 214 215 218 222 226 237 240 238 227 219
331 331 330 329 329 328 328 331 331 342 348 338 335 342 342 328 303 296 307 295 282 262 243 224 213 223 234 233 226 225 214 211 214 214 214 225 225 229 222 241 252 251 247
334 330 328 330 332 335 337 338 340 348 351 345 344 346 339 325 317 311 307 304 303 291 268 249 232 222 243 242 224 220 213 214 218 217 214 212 211 224 220 218 235 241 248
328 327 329 327 332 335 334 339 345 347 349 343 340 337 334 325 319 315 311 308 314 300 285 269 246 233 248 248 232 223 204 214 224 224 220 212 210 230 233 221 226 243 256
337 337 338 341 340 337 339 348 346 346 340 333 329 334 335 328 308 299 306 315 308 295 289 284 254 229 236 253 241 228 207 217 225 224 223 227 229 233 233 220 217 233 249
338 340 344 344 338 338 346 349 347 339 330 330 334 338 338 332 321 313 317 319 311 314 312 303 286 259 253 255 248 235 211 211 218 228 228 230 239 241 241 240 229 237 246
341 342 344 343 343 346 350 347 339 331 334 338 339 340 341 338 336 347 341 332 328 323 312 311 301 289 276 270 254 241 237 231 216 227 232 234 244 245 244 246 247 248 250
338 339 340 340 344 348 350 341 332 334 338 343 343 338 342 346 348 354 345 336 337 319 305 302 297 293 294 282 271 263 256 245 234 238 239 241 243 244 241 254 260 249 230
336 339 342 343 342 344 346 341 338 339 342 344 341 341 344 348 352 348 344 344 337 323 308 303 298 302 313 313 286 273 267 256 251 252 253 246 245 247 253 257 256 251 240
336 338 338 335 334 338 341 339 342 344 344 343 341 343 345 343 345 348 353 349 354 335 317 307 293 287 289 287 276 254 239 233 234 234 233 224 221 212 217 218 224 237 251
330 332 332 331 332 337 339 341 344 346 347 345 343 340 340 340 344 344 343 348 348 349 338 326 317 300 289 291 284 269 270 270 257 241 231 234 223 217 221 223 237 246 250
Height
1490 1490 1490 1490 1490 1490 1490 1490 1490 1490 1491 1491 1491 1492 1493 1494 1496 1497 1498 1499 1500 1502 1503 1504 1507 1508 1510 1512 1514 1517 1520 1522 1525 1527 1529 1532 1534 1536 1537 1539 1540 1541 1543
1487 1487 1487 1487 1487 1487 1487 1487 1487 1488 1488 1488 1489 1490 1490 1492 1493 1494 1495 1496 1497 1499 1500 1501 1503 1505 1507 1509 1511 1513 1516 1519 1521 1523 1526 1529 1533 1533 1535 1536 1538 1539 1540
1484 1484 1484 1484 1484 1484 1484 1484 1484 1484 1485 1485 1486 1487 1488 1489 1490 1491 1491 1492 1494 1495 1496 1498 1500 1502 1504 1505 1507 1509 1512 1515 1518 1521 1523 1525 1527 1530 1532 1534 1535 1536 1538
1482 1482 1481 1481 1481 1481 1481 1481 1481 1481 1482 1482 1482 1483 1484 1484 1486 1487 1488 1489 1490 1492 1493 1495 1497 1499 1501 1502 1504 1506 1509 1512 1514 1517 1520 1522 1523 1526 1528 1531 1532 1534 1535
1480 1479 1479 1478 1478 1478 1478 1478 1479 1479 1479 1479 1480 1480 1481 1482 1483 1484 1485 1486 1488 1489 1489 1491 1493 1496 1498 1499 1501 1503 1506 1508 1510 1513 1515 1518 1520 1522 1524 1526 1528 1531 1532
1478 1478 1477 1476 1476 1475 1475 1475 1475 1475 1476 1476 1477 1477 1478 1478 1480 1480 1481 1483 1484 1485 1486 1488 1490 1492 1494 1496 1498 1500 1502 1505 1507 1510 1512 1514 1516 1518 1520 1522 1524 1526 1529
1476 1475 1474 1473 1472 1472 1472 1472 1472 1472 1472 1473 1473 1474 1474 1475 1476 1477 1478 1480 1481 1482 1483 1484 1486 1488 1490 1493 1495 1497 1499 1502 1504 1506 1508 1511 1513 1515 1517 1518 1520 1523 1525
1475 1474 1473 1471 1470 1469 1468 1468 1468 1468 1469 1469 1469 1470 1471 1471 1472 1473 1475 1476 1478 1478 1480 1481 1483 1485 1487 1489 1491 1493 1496 1498 1500 1503 1505 1507 1510 1512 1514 1515 1517 1519 1521
1474 1473 1471 1469 1468 1466 1465 1465 1464 1465 1465 1465 1465 1466 1467 1468 1469 1470 1471 1473 1474 1475 1476 1478 1480 1481 1483 1485 1488 1490 1492 1495 1497 1499 1501 1503 1506 1508 1510 1512 1514 1516 1516
1473 1471 1469 1467 1465 1464 1463 1462 1462 1461 1461 1462 1462 1462 1463 1464 1465 1466 1467 1468 1470 1471 1472 1474 1476 1477 1479 1482 1484 1486 1489 1491 1493 1496 1498 1500 1502 1504 1506 1508 1510 1512 1513
1472 1469 1467 1465 1463 1461 1460 1459 1458 1458 1458 1458 1458 1458 1459 1460 1461 1462 1463 1464 1465 1467 1469 1470 1472 1473 1475 1478 1480 1482 1485 1487 1489 1492 1494 1496 1498 1500 1502 1504 1506 1508 1509
1471 1468 1466 1463 1461 1459 1458 1456 1456 1455 1455 1454 1455 1455 1456 1456 1458 1458 1459 1461 1462 1463 1465 1466 1468 1469 1471 1474 1476 1478 1481 1483 1485 1487 1489 1492 1494 1496 1497 1499 1501 1503 1504
1469 1467 1464 1462 1459 1458 1456 1454 1454 1453 1452 1452 1452 1452 1453 1453 1454 1454 1456 1456 1457 1459 1461 1462 1463 1465 1467 1469 1472 1474 1476 1478 1481 1483 1485 1487 1489 1491 1493 1495 1496 1498 1500
1469 1466 1463 1461 1458 1456 1454 1453 1452 1451 1450 1450 1449 1449 1449 1450 1450 1451 1451 1452 1454 1455 1456 1458 1459 1461 1463 1465 1467 1469 1472 1474 1476 1479 1481 1483 1485 1486 1488 1490 1491 1493 1495
1468 1465 1463 1459 1457 1454 1452 1451 1450 1449 1448 1448 1447 1447 1447 1447 1447 1448 1448 1449 1450 1451 1452 1453 1455 1456 1458 1460 1462 1464 1467 1469 1472 1474 1476 1478 1480 1482 1484 1485 1486 1488 1489
1467 1465 1462 1459 1456 1454 1452 1450 1449 1448 1447 1446 1445 1445 1445 1445 1445 1445 1445 1446 1447 1447 1448 1449 1451 1452 1454 1456 1458 1460 1462 1465 1467 1469 1471 1473 1475 1477 1479 1480 1482 1483 1484
1467 1464 1460 1458 1455 1453 1451 1449 1448 1446 1445 1444 1443 1442 1442 1442 1442 1442 1442 1443 1443 1444 1445 1446 1447 1448 1450 1452 1454 1456 1458 1460 1462 1464 1466 1468 1470 1472 1474 1475 1477 1478 1480
1466 1463 1460 1456 1454 1452 1450 1448 1447 1445 1443 1442 1441 1441 1440 1440 1439 1439 1439 1439 1440 1440 1441 1442 1443 1444 1446 1448 1450 1452 1454 1455 1457 1459 1461 1463 1464 1466 1468 1470 1471 1472 1474
1465 1462 1459 1456 1453 1451 1449 1447 1445 1444 1442 1441 1440 1439 1438 1437 1437 1436 1436 1437 1437 1437 1438 1439 1440 1441 1442 1444 1446 1448 1449 1451 1452 1454 1456 1458 1460 1462 1463 1465 1466 1467 1468
1464 1461 1458 1455 1453 1450 1448 1446 1444 1442 1441 1440 1439 1438 1437 1435 1434 1434 1434 1434 1434 1435 1435 1436 1436 1437 1438 1440 1442 1444 1445 1446 1448 1449 1451 1454 1455 1457 1458 1460 1460 1461 1462
1463 1460 1457 1454 1452 1449 1447 1445 1443 1441 1441 1439 1438 1436 1435 1434 1433 1432 1432 1432 1432 1432 1432 1432 1433 1434 1435 1436 1438 1439 1441 1442 1443 1444 1446 1448 1450 1452 1453 1455 1456 1456 1458
1461 1459 1456 1453 1451 1449 1446 1444 1442 1441 1439 1437 1436 1434 1433 1431 1430 1429 1429 1429 1429 1430 1429 1429 1430 1430 1431 1433 1434 1435 1437 1438 1439 1440 1442 1443 1445 1447 1448 1449 1451 1452 1453
1460 1458 1455 1452 1450 1448 1446 1443 1441 1440 1438 1436 1434 1432 1431 1429 1428 1428 1427 1427 1427 1427 1427 1427 1427 1427 1428 1429 1430 1431 1432 1434 1435 1436 1437 1439 1440 1442 1443 1444 1446 1447 1448
1459 1457 1454 1451 1449 1447 1445 1443 1441 1439 1436 1434 1432 1430 1429 1428 1427 1426 1426 1425 1425 1425 1424 1424 1424 1424 1425 1426 1427 1427 1429 1430 1431 1432 1433 1435 1436 1437 1439 1440 1441 1442 1443
1457 1455 1453 1450 1448 1446 1443 1441 1439 1437 1435 1432 1431 1429 1428 1426 1425 1425 1424 1424 1423 1423 1423 1422 1422 1422 1422 1422 1424 1424 1425 1426 1427 1428 1429 1430 1431 1432 1434 1435 1436 1437 1438
1456 1453 1451 1449 1447 1444 1442 1440 1438 1436 1434 1431 1430 1428 1427 1425 1424 1423 1423 1422 1422 1421 1421 1420 1420 1419 1420 1420 1420 1421 1422 1423 1424 1425 1425 1425 1426 1428 1429 1430 1431 1432 1433